Tracking 30143 objects as of 20-Jan-2025
HD Live streaming from Space Station
objects crossing your sky now

COSMOS 1823 DEB

Track COSMOS 1823 DEB now!
10-day predictions


NORAD ID: 29359
Int'l Code: 1987-020EA
Perigee: 1,484.9 km
Apogee: 1,533.1 km
Inclination: 73.6 °
Period: 116.0 minutes
Semi major axis: 7879 km
RCS: 0.0053 m2 (small)
Launch date: February 20, 1987
Source: Commonwealth of Independent States (former USSR) (CIS)
Launch site: PLESETSK MISSILE AND SPACE COMPLEX (PKMTR)

Note: This is SATELLITE DEBRIS
Your satellite tracking list
Your tracking list is empty




NASA's NSSDC Master Catalog

Two Line Element Set (TLE):
1 29359U 87020EA  25018.75633966 -.00000015  00000-0  17920-4 0  9996
2 29359  73.6153  34.1009 0030550 252.1389 281.7535 12.41120625465049
Source of the keplerian elements: AFSPC